Time,TemperatureF,DewpointF,PressureIn,WindDirection,WindDirectionDegrees,WindSpeedMPH,WindSpeedGustMPH,Humidity,HourlyPrecipIn,Conditions,Clouds,dailyrainin,SoftwareType,DateUTC
2013-06-06 00:03:00,57.0,50.0,30.02,North,0,0.0,0.0,76,0.00,,,0.00,,2013-06-06 04:03:00,
2013-06-06 00:13:00,57.0,50.0,30.02,North,0,0.0,0.0,76,0.00,,,0.00,,2013-06-06 04:13:00,
2013-06-06 00:23:00,57.0,50.0,30.02,NNE,23,0.0,0.0,76,0.00,,,0.00,,2013-06-06 04:23:00,
2013-06-06 00:33:00,57.0,50.0,30.02,NNE,23,0.0,0.0,77,0.00,,,0.00,,2013-06-06 04:33:00,
2013-06-06 00:42:00,57.0,50.0,30.02,NNE,23,0.0,0.0,77,0.00,,,0.00,,2013-06-06 04:42:00,
2013-06-06 00:53:00,57.0,50.0,30.02,NNE,23,0.0,0.0,77,0.00,,,0.00,,2013-06-06 04:53:00,
2013-06-06 01:02:00,57.0,49.0,30.02,NNE,23,0.0,0.0,75,0.00,,,0.00,,2013-06-06 05:02:00,
2013-06-06 01:12:00,57.0,49.0,30.02,NNE,23,0.0,0.0,75,0.00,,,0.00,,2013-06-06 05:12:00,
2013-06-06 01:22:00,57.0,49.0,30.02,ENE,68,0.0,0.0,74,0.00,,,0.00,,2013-06-06 05:22:00,
2013-06-06 01:32:00,57.0,48.0,30.02,NE,45,0.0,0.0,73,0.00,,,0.00,,2013-06-06 05:32:00,
2013-06-06 01:42:00,57.0,48.0,30.02,NE,45,0.0,0.0,73,0.00,,,0.00,,2013-06-06 05:42:00,
2013-06-06 01:52:00,57.0,48.0,30.01,NE,45,0.0,0.0,73,0.00,,,0.00,,2013-06-06 05:52:00,
2013-06-06 02:02:00,56.0,47.0,30.02,NNE,23,0.0,0.0,73,0.00,,,0.00,,2013-06-06 06:02:00,
2013-06-06 02:12:00,56.0,48.0,30.01,NNE,23,0.0,0.0,74,0.00,,,0.00,,2013-06-06 06:12:00,
2013-06-06 02:22:00,56.0,48.0,30.01,NNE,23,0.0,0.0,74,0.00,,,0.00,,2013-06-06 06:22:00,
2013-06-06 02:33:00,56.0,48.0,30.01,NNE,23,0.0,0.0,75,0.00,,,0.00,,2013-06-06 06:33:00,
2013-06-06 02:42:00,56.0,48.0,30.01,NNE,23,0.0,0.0,75,0.00,,,0.00,,2013-06-06 06:42:00,
2013-06-06 02:52:00,55.0,47.0,30.00,ESE,113,0.0,0.0,75,0.00,,,0.00,,2013-06-06 06:52:00,
2013-06-06 03:02:00,55.0,47.0,30.00,SE,135,0.0,0.0,75,0.00,,,0.00,,2013-06-06 07:02:00,
2013-06-06 03:12:00,55.0,47.0,30.00,SE,135,0.0,0.0,75,0.00,,,0.00,,2013-06-06 07:12:00,
2013-06-06 03:22:00,55.0,48.0,30.00,SE,135,0.0,0.0,76,0.00,,,0.00,,2013-06-06 07:22:00,
2013-06-06 03:32:00,55.0,48.0,29.99,East,90,0.0,0.0,76,0.00,,,0.00,,2013-06-06 07:32:00,
2013-06-06 03:42:00,55.0,48.0,29.99,East,90,0.0,0.0,76,0.00,,,0.00,,2013-06-06 07:42:00,
2013-06-06 03:52:00,55.0,48.0,29.99,East,90,0.0,0.0,76,0.00,,,0.00,,2013-06-06 07:52:00,
2013-06-06 04:02:00,55.0,48.0,29.98,NE,45,0.0,0.0,77,0.00,,,0.00,,2013-06-06 08:02:00,
2013-06-06 04:12:00,55.0,48.0,29.98,NE,45,0.0,0.0,77,0.00,,,0.00,,2013-06-06 08:12:00,
2013-06-06 04:22:00,55.0,48.0,29.98,ENE,68,0.0,0.0,77,0.00,,,0.00,,2013-06-06 08:22:00,
2013-06-06 04:32:00,55.0,48.0,29.97,East,90,0.0,0.0,76,0.00,,,0.00,,2013-06-06 08:32:00,
2013-06-06 04:42:00,55.0,48.0,29.96,ESE,113,0.0,0.0,76,0.00,,,0.00,,2013-06-06 08:42:00,
2013-06-06 04:52:00,55.0,48.0,29.96,ESE,113,0.0,0.0,76,0.00,,,0.00,,2013-06-06 08:52:00,
2013-06-06 05:02:00,55.0,48.0,29.96,ESE,113,0.0,0.0,76,0.00,,,0.00,,2013-06-06 09:02:00,
2013-06-06 05:12:00,55.0,48.0,29.96,East,90,0.0,0.0,76,0.00,,,0.00,,2013-06-06 09:12:00,
2013-06-06 05:22:00,55.0,48.0,29.96,East,90,0.0,0.0,76,0.00,,,0.00,,2013-06-06 09:22:00,
2013-06-06 05:33:00,55.0,48.0,29.96,NE,45,0.0,0.0,76,0.00,,,0.00,,2013-06-06 09:33:00,
2013-06-06 05:43:00,55.0,48.0,29.96,NE,45,0.0,0.0,76,0.00,,,0.00,,2013-06-06 09:43:00,
2013-06-06 05:53:00,55.0,48.0,29.96,NNE,23,0.0,0.0,76,0.00,,,0.00,,2013-06-06 09:53:00,
2013-06-06 06:03:00,55.0,48.0,29.96,NNE,23,0.0,0.0,76,0.00,,,0.00,,2013-06-06 10:03:00,
2013-06-06 06:12:00,55.0,48.0,29.96,North,0,0.0,0.0,76,0.00,,,0.00,,2013-06-06 10:12:00,
2013-06-06 06:23:00,55.0,48.0,29.96,North,0,0.0,0.0,76,0.00,,,0.00,,2013-06-06 10:23:00,
2013-06-06 06:33:00,55.0,48.0,29.95,NE,45,0.0,0.0,76,0.00,,,0.00,,2013-06-06 10:33:00,
2013-06-06 06:42:00,55.0,48.0,29.94,NNE,23,0.0,0.0,76,0.00,,,0.00,,2013-06-06 10:42:00,
2013-06-06 06:53:00,55.0,48.0,29.94,NNE,23,0.0,0.0,76,0.00,,,0.00,,2013-06-06 10:53:00,
2013-06-06 07:02:00,55.0,48.0,29.95,East,90,0.0,0.0,76,0.00,,,0.00,,2013-06-06 11:02:00,
2013-06-06 07:12:00,55.0,48.0,29.95,East,90,0.0,0.0,76,0.00,,,0.00,,2013-06-06 11:12:00,
2013-06-06 07:22:00,55.0,47.0,29.95,NNE,23,0.0,0.0,75,0.00,,,0.00,,2013-06-06 11:22:00,
2013-06-06 07:32:00,55.0,47.0,29.95,North,0,0.0,0.0,75,0.00,,,0.00,,2013-06-06 11:32:00,
2013-06-06 07:42:00,55.0,47.0,29.95,North,0,0.0,0.0,75,0.00,,,0.00,,2013-06-06 11:42:00,
2013-06-06 07:52:00,56.0,48.0,29.95,NE,45,0.0,0.0,75,0.00,,,0.00,,2013-06-06 11:52:00,
2013-06-06 08:03:00,56.0,48.0,29.94,NNE,23,0.0,0.0,75,0.00,,,0.00,,2013-06-06 12:03:00,
2013-06-06 08:12:00,56.0,48.0,29.94,NNE,23,0.0,0.0,75,0.00,,,0.00,,2013-06-06 12:12:00,
2013-06-06 08:23:00,56.0,48.0,29.94,NE,45,0.0,0.0,74,0.00,,,0.00,,2013-06-06 12:23:00,
2013-06-06 08:33:00,57.0,48.0,29.94,ENE,68,0.0,0.0,73,0.00,,,0.00,,2013-06-06 12:33:00,
2013-06-06 08:43:00,57.0,48.0,29.94,NE,45,0.0,0.0,73,0.00,,,0.00,,2013-06-06 12:43:00,
2013-06-06 08:53:00,57.0,48.0,29.94,NE,45,0.0,0.0,73,0.00,,,0.00,,2013-06-06 12:53:00,
2013-06-06 09:03:00,58.0,49.0,29.94,NNE,23,0.0,0.0,71,0.00,,,0.00,,2013-06-06 13:03:00,
2013-06-06 09:13:00,59.0,49.0,29.93,NE,45,0.0,0.0,69,0.00,,,0.00,,2013-06-06 13:13:00,
2013-06-06 09:23:00,59.0,49.0,29.93,NE,45,0.0,0.0,69,0.00,,,0.00,,2013-06-06 13:23:00,
2013-06-06 09:33:00,60.0,49.0,29.93,NE,45,0.0,0.0,68,0.00,,,0.00,,2013-06-06 13:33:00,
2013-06-06 09:43:00,61.0,50.0,29.93,ENE,68,0.0,0.0,66,0.00,,,0.00,,2013-06-06 13:43:00,
2013-06-06 09:53:00,61.0,50.0,29.93,ENE,68,0.0,0.0,66,0.00,,,0.00,,2013-06-06 13:53:00,
2013-06-06 10:03:00,61.0,49.0,29.93,ESE,113,3.0,6.0,64,0.00,,,0.00,,2013-06-06 14:03:00,
2013-06-06 10:13:00,61.0,49.0,29.93,East,90,0.0,0.0,64,0.00,,,0.00,,2013-06-06 14:13:00,
2013-06-06 10:23:00,61.0,49.0,29.93,East,90,0.0,0.0,64,0.00,,,0.00,,2013-06-06 14:23:00,
2013-06-06 10:33:00,61.0,48.0,29.93,East,90,0.0,0.0,63,0.00,,,0.00,,2013-06-06 14:33:00,
2013-06-06 10:43:00,61.0,48.0,29.93,East,90,0.0,0.0,63,0.00,,,0.00,,2013-06-06 14:43:00,
2013-06-06 10:53:00,62.0,49.0,29.93,NE,45,0.0,0.0,62,0.00,,,0.00,,2013-06-06 14:53:00,
2013-06-06 11:03:00,62.0,49.0,29.92,East,90,3.0,5.0,63,0.00,,,0.00,,2013-06-06 15:03:00,
2013-06-06 11:13:00,62.0,50.0,29.93,North,0,0.0,0.0,65,0.00,,,0.00,,2013-06-06 15:13:00,
2013-06-06 11:23:00,62.0,50.0,29.93,North,0,0.0,0.0,65,0.00,,,0.00,,2013-06-06 15:23:00,
2013-06-06 11:33:00,64.0,52.0,29.93,North,0,0.0,2.0,65,0.00,,,0.00,,2013-06-06 15:33:00,
2013-06-06 11:43:00,64.0,52.0,29.93,North,0,0.0,2.0,65,0.00,,,0.00,,2013-06-06 15:43:00,
2013-06-06 11:53:00,63.0,51.0,29.94,North,0,0.0,1.0,64,0.00,,,0.00,,2013-06-06 15:53:00,
2013-06-06 12:03:00,62.0,51.0,29.94,North,0,1.0,2.0,66,0.00,,,0.00,,2013-06-06 16:03:00,
2013-06-06 12:13:00,62.0,51.0,29.94,North,0,1.0,2.0,66,0.00,,,0.00,,2013-06-06 16:13:00,
2013-06-06 12:23:00,61.0,50.0,29.94,North,0,0.0,0.0,66,0.00,,,0.00,,2013-06-06 16:23:00,
2013-06-06 12:33:00,61.0,50.0,29.94,ENE,68,0.0,0.0,67,0.00,,,0.00,,2013-06-06 16:33:00,
2013-06-06 12:44:00,61.0,50.0,29.94,ENE,68,0.0,0.0,67,0.00,,,0.00,,2013-06-06 16:44:00,
2013-06-06 12:53:00,60.0,49.0,29.94,North,0,0.0,0.0,68,0.00,,,0.00,,2013-06-06 16:53:00,
2013-06-06 13:03:00,60.0,49.0,29.94,ENE,68,0.0,0.0,68,0.00,,,0.00,,2013-06-06 17:03:00,
2013-06-06 13:13:00,60.0,49.0,29.93,NE,45,0.0,0.0,68,0.00,,,0.00,,2013-06-06 17:13:00,
2013-06-06 13:23:00,60.0,49.0,29.93,NE,45,0.0,0.0,68,0.00,,,0.00,,2013-06-06 17:23:00,
2013-06-06 13:33:00,61.0,51.0,29.93,North,0,0.0,0.0,69,0.00,,,0.00,,2013-06-06 17:33:00,
2013-06-06 13:43:00,61.0,51.0,29.93,North,0,0.0,0.0,69,0.00,,,0.00,,2013-06-06 17:43:00,
2013-06-06 13:53:00,60.0,50.0,29.92,NNE,23,0.0,0.0,69,0.00,,,0.00,,2013-06-06 17:53:00,
2013-06-06 14:03:00,60.0,50.0,29.92,NE,45,0.0,0.0,69,0.00,,,0.00,,2013-06-06 18:03:00,
2013-06-06 14:13:00,60.0,50.0,29.92,NE,45,0.0,0.0,69,0.00,,,0.00,,2013-06-06 18:13:00,
2013-06-06 14:23:00,60.0,50.0,29.92,NE,45,0.0,0.0,69,0.00,,,0.00,,2013-06-06 18:23:00,
2013-06-06 14:33:00,60.0,49.0,29.91,ENE,68,0.0,0.0,67,0.00,,,0.00,,2013-06-06 18:33:00,
2013-06-06 14:43:00,60.0,49.0,29.91,ENE,68,0.0,0.0,67,0.00,,,0.00,,2013-06-06 18:43:00,
2013-06-06 14:53:00,60.0,49.0,29.91,East,90,0.0,0.0,66,0.00,,,0.00,,2013-06-06 18:53:00,
2013-06-06 15:03:00,60.0,48.0,29.91,NNE,23,1.0,1.0,64,0.00,,,0.00,,2013-06-06 19:03:00,
2013-06-06 15:13:00,61.0,49.0,29.91,East,90,2.0,3.0,64,0.00,,,0.00,,2013-06-06 19:13:00,
2013-06-06 15:23:00,61.0,49.0,29.91,East,90,2.0,3.0,64,0.00,,,0.00,,2013-06-06 19:23:00,
2013-06-06 15:33:00,61.0,49.0,29.91,NNE,23,2.0,2.0,64,0.00,,,0.00,,2013-06-06 19:33:00,
2013-06-06 15:43:00,61.0,49.0,29.91,NNE,23,2.0,2.0,64,0.00,,,0.00,,2013-06-06 19:43:00,
2013-06-06 15:53:00,62.0,50.0,29.91,North,0,0.0,0.0,64,0.00,,,0.00,,2013-06-06 19:53:00,
2013-06-06 16:03:00,62.0,49.0,29.91,NNE,23,2.0,5.0,63,0.00,,,0.00,,2013-06-06 20:03:00,
2013-06-06 16:13:00,62.0,49.0,29.91,NNE,23,2.0,5.0,63,0.00,,,0.00,,2013-06-06 20:13:00,
2013-06-06 16:23:00,61.0,48.0,29.91,ENE,68,0.0,0.0,62,0.00,,,0.00,,2013-06-06 20:23:00,
2013-06-06 16:33:00,61.0,48.0,29.91,NNE,23,1.0,3.0,62,0.00,,,0.00,,2013-06-06 20:33:00,
2013-06-06 16:42:00,61.0,48.0,29.91,NNE,23,1.0,3.0,62,0.00,,,0.00,,2013-06-06 20:42:00,
2013-06-06 16:53:00,62.0,49.0,29.91,NE,45,2.0,0.0,62,0.00,,,0.00,,2013-06-06 20:53:00,
2013-06-06 17:03:00,62.0,48.0,29.91,North,0,3.0,5.0,61,0.00,,,0.00,,2013-06-06 21:03:00,
2013-06-06 17:13:00,62.0,47.0,29.91,ENE,68,0.0,0.0,59,0.00,,,0.00,,2013-06-06 21:13:00,
2013-06-06 17:23:00,62.0,47.0,29.91,ENE,68,0.0,0.0,59,0.00,,,0.00,,2013-06-06 21:23:00,
2013-06-06 17:33:00,62.0,48.0,29.91,NNE,23,1.0,6.0,60,0.00,,,0.00,,2013-06-06 21:33:00,
2013-06-06 17:43:00,62.0,48.0,29.91,NNE,23,1.0,6.0,60,0.00,,,0.00,,2013-06-06 21:43:00,
2013-06-06 17:53:00,63.0,49.0,29.90,ENE,68,0.0,0.0,60,0.00,,,0.00,,2013-06-06 21:53:00,
2013-06-06 18:03:00,62.0,48.0,29.91,NNE,23,3.0,9.0,61,0.00,,,0.00,,2013-06-06 22:03:00,
2013-06-06 18:13:00,62.0,48.0,29.91,NNE,23,1.0,0.0,61,0.00,,,0.00,,2013-06-06 22:13:00,
2013-06-06 18:23:00,62.0,48.0,29.91,NNE,23,1.0,0.0,61,0.00,,,0.00,,2013-06-06 22:23:00,
2013-06-06 18:33:00,62.0,48.0,29.91,East,90,0.0,0.0,61,0.00,,,0.00,,2013-06-06 22:33:00,
2013-06-06 18:43:00,62.0,48.0,29.91,East,90,0.0,0.0,61,0.00,,,0.00,,2013-06-06 22:43:00,
2013-06-06 18:53:00,61.0,48.0,29.91,ENE,68,0.0,0.0,62,0.00,,,0.00,,2013-06-06 22:53:00,
2013-06-06 19:02:00,61.0,48.0,29.91,ESE,113,0.0,0.0,62,0.00,,,0.00,,2013-06-06 23:02:00,
2013-06-06 19:13:00,61.0,48.0,29.91,ESE,113,0.0,0.0,62,0.00,,,0.00,,2013-06-06 23:13:00,
2013-06-06 19:22:00,61.0,48.0,29.90,NNW,338,1.0,5.0,63,0.00,,,0.00,,2013-06-06 23:22:00,
2013-06-06 19:33:00,61.0,48.0,29.90,NE,45,0.0,0.0,62,0.00,,,0.00,,2013-06-06 23:33:00,
2013-06-06 19:43:00,61.0,48.0,29.90,NE,45,0.0,0.0,62,0.00,,,0.00,,2013-06-06 23:43:00,
2013-06-06 19:52:00,61.0,48.0,29.90,NNE,23,2.0,3.0,62,0.00,,,0.00,,2013-06-06 23:52:00,
2013-06-06 20:02:00,61.0,48.0,29.91,NNE,23,0.0,0.0,62,0.00,,,0.00,,2013-06-07 00:02:00,
2013-06-06 20:12:00,61.0,48.0,29.91,NNE,23,0.0,0.0,62,0.00,,,0.00,,2013-06-07 00:12:00,
2013-06-06 20:22:00,60.0,47.0,29.91,NNW,338,0.0,0.0,63,0.00,,,0.00,,2013-06-07 00:22:00,
2013-06-06 20:32:00,60.0,48.0,29.91,ENE,68,0.0,0.0,64,0.00,,,0.00,,2013-06-07 00:32:00,
2013-06-06 20:42:00,60.0,48.0,29.91,ENE,68,0.0,0.0,64,0.00,,,0.00,,2013-06-07 00:42:00,
2013-06-06 20:52:00,59.0,47.0,29.90,North,0,0.0,0.0,65,0.00,,,0.00,,2013-06-07 00:52:00,
2013-06-06 21:03:00,59.0,48.0,29.91,NE,45,0.0,0.0,66,0.00,,,0.00,,2013-06-07 01:03:00,
2013-06-06 21:12:00,59.0,48.0,29.91,NNE,23,0.0,0.0,66,0.00,,,0.00,,2013-06-07 01:12:00,
2013-06-06 21:22:00,59.0,48.0,29.91,NNE,23,0.0,0.0,66,0.00,,,0.00,,2013-06-07 01:22:00,
2013-06-06 21:32:00,59.0,48.0,29.92,NE,45,0.0,0.0,68,0.00,,,0.00,,2013-06-07 01:32:00,
2013-06-06 21:42:00,59.0,48.0,29.92,NE,45,0.0,0.0,68,0.00,,,0.00,,2013-06-07 01:42:00,
2013-06-06 21:52:00,58.0,48.0,29.91,NE,45,0.0,0.0,69,0.00,,,0.00,,2013-06-07 01:52:00,
2013-06-06 22:02:00,58.0,49.0,29.91,NNW,338,0.0,0.0,71,0.00,,,0.00,,2013-06-07 02:02:00,
2013-06-06 22:12:00,58.0,49.0,29.91,NNW,338,0.0,0.0,71,0.00,,,0.00,,2013-06-07 02:12:00,
2013-06-06 22:22:00,57.0,48.0,29.91,NNE,23,0.0,0.0,71,0.00,,,0.00,,2013-06-07 02:22:00,
2013-06-06 22:32:00,56.0,47.0,29.91,NNW,338,0.0,0.0,73,0.00,,,0.00,,2013-06-07 02:32:00,
2013-06-06 22:42:00,56.0,47.0,29.91,NNW,338,0.0,0.0,73,0.00,,,0.00,,2013-06-07 02:42:00,
2013-06-06 22:52:00,55.0,47.0,29.91,North,0,0.0,0.0,74,0.00,,,0.00,,2013-06-07 02:52:00,
2013-06-06 23:02:00,55.0,47.0,29.91,NNW,338,0.0,0.0,75,0.00,,,0.00,,2013-06-07 03:02:00,
2013-06-06 23:12:00,55.0,48.0,29.91,NNE,23,0.0,0.0,76,0.00,,,0.00,,2013-06-07 03:12:00,
2013-06-06 23:22:00,55.0,48.0,29.91,NNE,23,0.0,0.0,76,0.00,,,0.00,,2013-06-07 03:22:00,
2013-06-06 23:33:00,55.0,48.0,29.91,North,0,0.0,0.0,77,0.00,,,0.00,,2013-06-07 03:33:00,
2013-06-06 23:43:00,55.0,48.0,29.91,North,0,0.0,0.0,77,0.00,,,0.00,,2013-06-07 03:43:00,
2013-06-06 23:53:00,54.0,47.0,29.92,NE,45,0.0,0.0,77,0.00,,,0.00,,2013-06-07 03:53:00,